Theta_e
308 309 309 310 309 309 309 309 311 311 310 312 312 313 313 312 311 309 308 307 306 305 307 309 317 318 319 318 319 319 312 316 318 319 320 322 324 327 330 336 349 349 348 350 353
310 309 307 309 309 309 309 309 310 310 310 311 312 312 312 312 310 310 311 307 306 305 311 309 313 316 318 319 319 315 313 314 316 319 322 320 324 325 327 330 341 347 348 351 352
311 310 308 308 308 308 309 308 309 310 310 310 311 312 312 311 310 311 311 310 306 305 311 310 313 316 317 317 318 314 314 315 318 320 321 321 324 325 325 326 328 346 348 352 351
311 310 309 309 308 308 309 309 309 309 309 310 310 311 311 310 312 311 312 312 306 305 309 311 314 315 314 315 317 317 317 318 320 320 321 320 325 325 326 326 327 347 347 350 351
309 309 309 309 309 309 308 308 308 309 309 309 310 310 311 309 313 311 311 311 306 305 307 311 313 314 314 314 315 316 317 319 320 321 321 321 324 325 327 327 327 336 347 347 344
309 309 309 308 308 308 307 306 306 307 309 309 310 311 312 310 314 310 309 310 306 305 305 311 314 315 315 313 314 315 317 318 318 320 320 321 323 327 327 327 327 327 327 327 335
308 308 308 308 307 308 308 306 304 305 307 309 310 310 312 312 314 311 311 312 307 305 307 310 312 314 312 314 315 316 316 315 315 318 318 321 323 325 328 328 328 328 328 328 327
304 305 307 308 307 307 308 307 304 306 306 308 310 312 311 314 312 312 311 314 311 308 309 309 311 312 311 312 313 314 314 315 318 317 319 322 320 323 328 328 328 327 327 327 327
304 304 305 305 304 306 307 306 304 305 306 310 311 312 311 312 312 312 311 313 313 308 308 309 311 310 310 309 309 312 314 313 315 317 323 322 324 323 327 328 328 328 327 327 327
305 305 305 305 306 306 306 305 304 306 307 309 312 311 311 313 314 312 312 313 315 315 313 311 309 307 305 307 313 313 313 313 317 317 321 325 327 327 326 326 326 326 326 326 327
304 303 304 304 304 304 306 305 308 309 310 311 312 312 314 315 315 315 312 313 315 314 313 312 306 308 308 309 312 312 313 314 316 315 325 325 327 326 327 326 324 325 326 326 327
303 304 303 303 302 303 304 307 312 309 309 311 312 312 313 314 314 316 311 314 315 316 311 310 309 307 309 309 311 312 313 313 315 322 322 322 326 326 326 326 327 326 325 326 327
301 302 301 302 302 302 307 309 308 309 311 311 310 312 313 314 315 316 313 314 316 316 310 310 310 310 310 310 311 312 312 314 319 321 324 325 326 327 326 325 325 327 327 325 327
299 299 300 301 303 306 306 305 310 312 312 313 313 315 315 316 316 315 314 314 312 314 311 309 309 311 310 311 312 312 312 314 316 320 320 323 322 321 325 324 321 325 323 325 326
300 299 299 301 302 303 303 307 312 311 318 316 316 315 316 318 318 318 315 314 312 311 310 310 310 309 310 311 312 313 313 313 314 318 320 320 323 320 317 325 324 318 325 321 322
299 299 300 302 302 303 305 309 312 318 318 320 318 317 318 318 318 318 314 314 314 312 311 311 311 311 310 312 313 313 313 315 314 312 317 317 321 321 318 320 323 320 321 321 319
299 299 302 303 303 308 312 312 318 319 316 322 319 318 318 318 318 316 314 313 312 311 312 313 313 312 312 312 311 312 311 314 315 318 319 317 316 318 318 316 318 319 319 318 319
299 301 306 310 305 311 314 315 318 316 318 320 321 320 318 317 317 315 315 314 312 311 310 312 312 312 311 311 310 310 312 316 319 319 317 316 318 316 320 323 319 318 318 318 327
300 304 314 310 305 312 314 316 316 316 319 317 318 322 316 317 317 315 316 316 315 311 311 311 312 312 312 312 311 313 313 313 316 319 317 317 320 320 322 323 323 317 318 326 336
302 306 313 313 310 310 315 316 315 317 318 318 319 319 316 317 316 315 313 315 315 313 310 312 312 312 313 311 311 314 314 317 318 320 321 321 326 320 324 323 324 320 322 329 334
305 306 310 310 309 310 314 316 315 316 317 318 318 323 321 320 316 314 314 314 314 312 310 311 314 315 317 312 311 313 315 314 315 315 318 321 322 323 324 322 323 318 324 328 332
305 307 309 310 311 309 311 309 312 317 317 318 318 319 320 322 325 314 314 315 314 310 311 312 312 315 317 317 313 312 314 315 316 321 320 319 318 325 324 324 324 320 322 325 329
305 307 308 307 308 309 309 310 312 314 313 318 319 318 321 323 323 323 314 315 314 312 311 314 315 317 316 317 317 320 317 315 317 319 324 320 321 326 326 324 325 321 320 324 327
305 307 304 307 305 309 309 311 314 314 316 315 316 318 320 322 322 323 324 321 315 312 314 316 316 316 317 318 320 325 322 320 319 320 325 325 326 328 327 327 325 325 324 321 322
301 303 303 303 304 306 308 312 313 314 316 316 317 319 321 321 321 322 323 321 318 322 318 316 320 322 325 325 324 324 323 321 322 323 322 324 325 327 327 326 326 325 324 319 320
300 301 302 302 305 307 310 312 313 314 313 316 317 319 320 321 321 324 323 321 321 320 320 317 322 323 325 324 324 323 321 321 322 322 325 325 326 324 325 326 325 325 323 317 316
300 301 302 304 306 308 309 310 311 313 313 314 316 317 320 319 320 321 321 321 321 322 320 319 318 318 325 325 322 322 323 318 319 317 322 324 322 323 325 323 323 324 323 322 316
Wind_Speed
18 17 15 17 14 16 16 17 19 17 14 16 15 16 20 20 21 22 28 24 19 12 17 28 28 23 12 8 11 8 4 4 4 5 3 8 4 5 10 11 9 6 13 17 21
18 17 17 16 16 17 17 17 18 18 15 15 14 16 20 20 21 29 26 24 20 23 21 28 33 25 9 9 9 5 5 9 4 4 0 9 3 4 4 11 14 18 21 21 21
19 18 17 17 17 16 18 16 18 18 17 13 14 15 18 19 21 12 2 9 22 24 23 23 27 27 11 8 8 7 7 5 3 7 1 6 5 3 11 6 6 13 22 25 22
19 19 19 18 18 17 18 19 18 17 18 15 13 13 14 15 6 6 5 2 25 28 28 22 18 18 7 7 7 5 8 7 4 2 3 6 4 5 2 11 14 18 22 25 24
18 19 20 20 21 20 19 19 17 18 17 15 11 10 14 9 26 8 11 10 27 33 33 22 22 12 8 8 2 2 2 4 5 7 10 10 3 6 8 12 17 21 17 19 14
18 19 20 20 20 21 21 18 19 18 16 14 11 10 14 13 13 7 14 11 28 33 33 25 17 16 8 4 9 4 10 10 3 9 11 3 3 8 11 9 9 17 15 14 13
18 19 21 22 21 21 22 23 20 18 15 12 11 11 19 32 10 3 4 4 23 32 30 28 12 18 6 2 7 11 2 7 7 7 6 2 5 7 20 12 11 9 11 11 10
19 19 21 21 23 21 23 24 19 15 12 9 6 11 16 18 12 21 16 10 17 27 11 26 10 13 3 2 5 6 3 5 10 10 7 9 9 4 17 14 6 8 6 8 4
22 22 20 22 22 23 23 25 18 16 12 6 9 13 13 11 13 15 21 19 15 19 19 3 21 3 3 6 4 5 11 6 5 7 5 7 4 8 15 13 9 5 9 12 5
21 21 21 23 22 22 23 25 19 13 9 6 11 6 16 6 7 14 25 17 16 15 10 7 8 3 1 4 13 12 10 5 13 5 5 3 4 3 10 14 15 8 6 10 8
23 23 23 23 25 23 24 25 2 1 14 14 15 13 5 6 8 10 27 22 16 16 6 12 4 16 10 5 0 5 6 3 3 7 4 6 5 7 9 7 11 8 6 7 6
26 24 25 28 28 24 25 11 5 3 10 27 33 31 31 16 7 8 28 15 10 6 5 5 9 7 6 7 5 1 4 5 2 5 7 5 7 8 8 7 12 11 7 5 6
28 27 27 28 33 25 12 11 9 11 7 11 28 27 22 15 11 13 30 14 7 7 7 7 5 10 10 8 9 4 5 2 2 4 2 6 5 3 6 10 11 18 14 6 10
32 30 28 32 23 10 14 10 11 9 4 6 10 9 14 12 7 23 29 16 4 10 9 4 7 16 6 10 7 5 7 5 4 2 5 6 6 5 6 9 7 22 15 14 13
34 32 31 27 25 24 8 5 5 6 4 4 8 8 23 16 12 15 26 18 8 7 7 8 12 11 11 6 8 5 6 6 5 4 3 3 3 7 0 10 15 12 30 19 16
36 34 35 34 24 14 8 7 11 3 6 2 10 10 12 7 1 22 19 23 17 6 4 7 10 8 9 7 9 7 4 1 3 4 2 6 5 4 6 7 8 10 26 24 16
40 39 33 21 19 6 15 13 3 5 5 2 6 11 10 6 2 18 15 18 6 6 6 4 5 4 5 5 4 5 6 0 1 1 6 4 1 7 9 8 10 12 26 22 20
44 38 20 10 9 15 22 2 4 6 4 7 5 4 10 5 3 15 15 13 5 5 4 5 2 8 5 7 7 6 8 5 4 4 2 2 6 6 0 6 13 21 19 20 31
44 29 22 12 21 20 9 2 3 4 4 4 13 3 4 4 6 12 11 12 9 5 6 5 3 1 7 5 10 5 5 9 5 4 3 2 7 1 7 11 14 6 23 33 42
41 15 31 6 12 20 2 4 4 3 4 4 3 4 5 10 4 7 8 7 7 7 4 2 2 6 5 6 2 7 7 5 3 6 2 4 4 4 7 9 10 1 16 31 42
27 8 25 7 10 8 1 4 6 9 1 3 4 4 3 2 5 7 9 4 12 9 8 3 3 5 5 6 10 2 3 5 4 5 6 2 5 4 2 5 9 3 10 30 46
16 4 19 20 3 3 2 9 11 7 5 6 3 2 2 1 1 6 9 12 18 7 9 7 4 3 5 3 6 7 9 7 5 4 3 4 5 3 3 4 10 5 10 21 36
12 6 12 24 4 4 8 8 6 9 7 3 3 4 2 3 2 1 6 12 10 11 9 6 2 2 5 6 4 4 2 5 6 4 5 5 5 1 4 9 12 16 14 17 27
9 5 9 8 9 7 8 5 7 9 5 3 4 3 2 1 1 3 4 2 16 10 18 10 3 6 6 5 3 3 4 3 7 4 5 5 3 5 8 8 6 13 24 15 15
11 3 6 4 6 11 9 4 10 8 6 2 3 7 3 1 1 3 2 5 5 5 4 7 5 2 5 4 5 3 3 2 4 6 6 8 8 7 5 13 9 5 20 21 9
8 6 8 9 15 11 7 4 11 8 5 5 4 4 9 3 1 4 2 6 4 7 4 3 4 4 3 1 3 6 6 6 5 5 6 7 2 2 11 9 11 6 18 26 19
17 11 6 8 8 6 5 10 13 16 10 11 11 8 3 9 3 6 6 4 3 1 1 3 6 4 1 3 3 4 3 3 6 5 4 5 6 7 8 8 8 13 13 18 16
Wind_Direction
334 335 332 327 324 319 316 315 314 311 294 293 296 301 301 293 286 282 269 261 249 228 213 197 197 197 196 205 185 179 85 216 194 160 238 333 334 97 49 55 62 32 104 120 146
330 329 332 329 321 315 311 311 308 307 299 292 291 293 299 299 297 284 284 267 237 205 205 194 201 198 185 200 196 146 150 208 217 180 106 316 347 101 70 40 65 78 106 134 152
329 327 330 332 328 318 313 304 303 308 307 292 285 286 299 307 308 277 292 238 204 203 199 199 202 197 187 178 204 177 183 207 228 243 19 319 13 25 119 34 69 122 128 133 147
325 324 325 325 324 323 315 313 308 305 301 301 283 288 299 306 268 186 359 218 187 193 196 196 189 181 154 179 201 136 207 179 242 232 319 319 350 36 64 131 102 138 142 128 137
318 318 318 319 322 323 316 312 307 301 296 297 289 286 291 269 252 230 282 326 182 187 192 185 184 170 161 164 130 154 213 207 236 299 286 286 282 128 111 113 97 116 141 163 156
316 314 312 316 316 313 314 309 307 297 294 290 287 268 273 261 282 279 252 277 186 186 191 187 193 181 180 149 163 218 236 266 266 276 286 277 246 137 166 136 109 116 113 124 162
309 310 310 309 309 307 306 312 306 299 287 281 278 247 260 251 261 226 186 229 191 189 192 188 182 180 158 119 227 217 8 300 227 228 236 189 272 192 176 165 133 121 120 145 153
315 309 311 309 309 307 302 306 307 297 283 273 248 254 253 273 262 240 228 222 194 191 163 201 173 175 144 154 124 157 134 216 244 173 243 159 265 197 168 175 179 148 139 147 168
334 327 313 307 307 310 304 305 310 281 265 247 253 227 262 264 259 219 209 200 182 197 196 158 205 185 163 123 87 176 209 201 309 182 165 156 197 255 171 149 147 264 116 139 146
333 330 326 319 316 314 308 308 308 263 225 218 224 232 255 244 279 201 190 187 173 182 178 204 168 142 105 152 192 180 187 172 220 197 187 180 211 255 165 157 154 163 271 143 177
329 325 322 319 315 313 312 321 297 247 203 201 203 215 237 314 149 200 188 166 165 156 163 185 141 199 185 113 83 129 141 228 131 227 136 195 197 241 232 197 165 183 207 270 167
328 326 323 317 313 309 298 269 256 277 279 245 240 248 251 276 307 202 184 154 158 171 139 130 216 182 156 175 224 164 141 202 262 190 169 195 221 228 244 253 253 232 215 205 195
325 323 324 318 313 311 285 257 309 286 262 264 231 234 235 213 219 213 178 168 161 147 179 158 209 178 179 170 185 189 155 159 174 180 156 114 304 225 272 276 256 268 274 231 194
325 322 324 322 315 297 281 299 284 249 287 264 190 231 180 185 221 198 183 163 134 173 176 205 227 174 172 193 155 183 170 184 247 128 208 158 257 252 230 258 261 254 234 237 211
328 324 323 320 297 284 278 256 100 143 286 137 156 183 163 176 131 184 187 186 158 153 137 226 189 176 192 175 153 184 158 192 218 183 136 338 121 269 4 231 253 266 258 232 206
330 327 323 310 287 312 189 211 165 217 248 311 143 163 158 198 227 152 167 192 194 154 148 206 194 162 178 175 166 164 134 102 58 129 202 208 182 266 230 210 238 237 247 249 217
333 330 318 291 268 167 169 156 221 241 326 54 158 156 172 155 197 156 168 195 171 138 174 181 237 176 142 160 152 121 117 241 216 86 223 196 57 229 255 238 227 234 238 228 196
338 336 342 329 196 161 156 155 247 307 310 40 322 275 191 132 200 169 172 192 225 125 108 158 158 161 180 172 157 174 154 152 174 186 294 143 224 244 260 14 338 262 250 205 171
343 351 18 17 160 162 167 186 266 276 0 70 318 241 150 164 131 168 178 195 206 174 141 138 274 167 173 175 147 171 140 192 96 22 79 231 285 151 16 3 354 272 176 169 167
348 5 2 17 189 177 224 238 233 280 38 337 279 187 155 187 126 140 165 189 201 181 122 108 169 200 206 124 264 166 160 97 355 158 182 275 287 239 354 336 336 284 176 166 164
357 33 2 24 135 183 237 287 296 305 272 257 265 360 18 132 175 177 186 214 185 187 138 159 88 304 119 171 165 108 162 64 113 134 165 172 262 211 293 325 327 259 185 166 163
4 26 17 347 46 30 318 309 306 328 336 250 226 292 291 307 107 170 193 211 185 128 156 189 152 225 195 203 189 165 172 151 128 199 140 159 259 196 254 12 16 133 143 166 164
351 328 20 26 20 358 332 319 298 15 327 348 318 287 3 348 70 43 210 221 179 160 153 175 242 345 355 359 10 64 141 119 119 95 179 136 249 190 59 49 38 80 99 164 164
6 352 357 17 348 338 342 327 324 299 268 211 272 275 296 280 103 352 329 336 197 182 179 132 129 157 185 200 153 17 23 158 122 113 166 200 178 188 203 113 328 74 83 93 178
22 8 4 317 335 329 323 286 333 350 347 242 283 240 219 257 145 204 331 334 74 114 91 131 157 108 69 121 123 109 70 301 126 147 157 197 187 214 197 147 215 63 84 68 116
24 355 334 307 298 334 342 332 326 332 299 297 213 294 252 251 8 166 359 16 47 340 93 359 132 107 67 137 130 95 21 61 56 144 83 84 92 170 111 154 160 126 87 78 86
3 340 316 310 318 342 336 326 312 317 297 260 279 272 220 231 246 130 102 163 195 87 44 108 129 106 117 292 133 59 151 48 54 22 122 152 203 148 137 130 118 114 103 99 84